QPF
0.00 0.00 0.00 0.00 0.00 0.00 0.00 0.00 0.00 0.00 0.00 0.01 0.00 0.00 0.00 0.00 0.01 0.03 0.03 0.02 0.01 0.00 0.00 0.00 0.00 0.00 0.00 0.00 0.00 0.00 0.00 0.00 0.00 0.00 0.00 0.00 0.00 0.00 0.00 0.00 0.00 0.00 0.00 0.00 0.00 0.00 0.00 0.01 0.00
0.00 0.00 0.00 0.00 0.00 0.00 0.00 0.00 0.00 0.00 0.00 0.00 0.00 0.00 0.01 0.01 0.02 0.01 0.01 0.01 0.01 0.00 0.00 0.00 0.00 0.00 0.00 0.00 0.00 0.00 0.00 0.00 0.00 0.00 0.00 0.00 0.00 0.00 0.00 0.00 0.00 0.00 0.00 0.00 0.00 0.01 0.01 0.01 0.00
0.00 0.00 0.00 0.00 0.00 0.00 0.00 0.00 0.00 0.00 0.00 0.00 0.00 0.00 0.01 0.03 0.05 0.03 0.02 0.01 0.01 0.00 0.00 0.00 0.00 0.00 0.00 0.00 0.00 0.00 0.00 0.00 0.00 0.00 0.00 0.00 0.00 0.00 0.00 0.00 0.00 0.01 0.01 0.00 0.00 0.00 0.00 0.01 0.01
0.00 0.00 0.00 0.00 0.00 0.00 0.00 0.00 0.00 0.00 0.00 0.01 0.00 0.02 0.02 0.04 0.05 0.05 0.04 0.03 0.01 0.00 0.00 0.00 0.00 0.00 0.00 0.00 0.00 0.00 0.00 0.00 0.00 0.00 0.00 0.00 0.00 0.00 0.00 0.01 0.01 0.01 0.01 0.01 0.01 0.01 0.01 0.01 0.01
0.00 0.00 0.00 0.00 0.00 0.00 0.00 0.00 0.00 0.00 0.01 0.02 0.02 0.04 0.09 0.09 0.09 0.08 0.06 0.04 0.03 0.01 0.00 0.00 0.00 0.00 0.00 0.00 0.00 0.00 0.00 0.00 0.00 0.00 0.00 0.00 0.01 0.01 0.01 0.01 0.01 0.01 0.01 0.01 0.01 0.01 0.01 0.01 0.01
0.00 0.00 0.00 0.00 0.00 0.00 0.00 0.00 0.00 0.00 0.01 0.02 0.06 0.10 0.24 0.26 0.19 0.14 0.13 0.08 0.07 0.02 0.00 0.00 0.00 0.00 0.00 0.00 0.00 0.00 0.00 0.01 0.01 0.01 0.01 0.01 0.01 0.01 0.01 0.01 0.01 0.01 0.01 0.01 0.01 0.01 0.01 0.01 0.01
0.00 0.00 0.00 0.00 0.00 0.00 0.00 0.00 0.00 0.00 0.01 0.03 0.10 0.11 0.19 0.24 0.17 0.18 0.20 0.13 0.10 0.05 0.01 0.01 0.01 0.01 0.01 0.00 0.00 0.00 0.01 0.01 0.01 0.02 0.02 0.01 0.01 0.01 0.01 0.01 0.01 0.01 0.01 0.01 0.01 0.01 0.01 0.00 0.00
0.00 0.00 0.00 0.00 0.00 0.00 0.00 0.00 0.00 0.00 0.01 0.04 0.11 0.12 0.22 0.24 0.20 0.18 0.22 0.19 0.13 0.10 0.03 0.02 0.01 0.01 0.01 0.01 0.01 0.01 0.01 0.01 0.01 0.02 0.02 0.02 0.01 0.01 0.01 0.01 0.01 0.02 0.01 0.01 0.01 0.01 0.01 0.01 0.00
0.00 0.00 0.00 0.00 0.00 0.00 0.00 0.00 0.00 0.01 0.02 0.05 0.07 0.11 0.24 0.25 0.19 0.19 0.24 0.21 0.15 0.15 0.09 0.05 0.03 0.02 0.02 0.01 0.01 0.01 0.01 0.01 0.01 0.01 0.01 0.01 0.01 0.01 0.01 0.01 0.02 0.02 0.02 0.02 0.02 0.01 0.01 0.01 0.01
0.00 0.00 0.00 0.00 0.00 0.00 0.00 0.00 0.00 0.01 0.02 0.06 0.10 0.13 0.18 0.29 0.28 0.26 0.29 0.25 0.24 0.22 0.19 0.13 0.07 0.04 0.03 0.02 0.01 0.01 0.01 0.01 0.00 0.00 0.00 0.01 0.01 0.01 0.02 0.03 0.04 0.05 0.04 0.03 0.02 0.02 0.02 0.01 0.01
0.00 0.00 0.00 0.00 0.00 0.00 0.00 0.00 0.00 0.01 0.07 0.11 0.14 0.17 0.17 0.24 0.29 0.30 0.33 0.33 0.39 0.37 0.22 0.14 0.16 0.08 0.05 0.06 0.02 0.02 0.02 0.01 0.01 0.01 0.01 0.01 0.02 0.04 0.06 0.08 0.10 0.08 0.08 0.06 0.04 0.04 0.03 0.02 0.02
0.00 0.00 0.00 0.00 0.00 0.00 0.00 0.00 0.01 0.02 0.16 0.19 0.21 0.18 0.21 0.35 0.45 0.38 0.40 0.50 0.48 0.51 0.36 0.17 0.14 0.12 0.06 0.08 0.04 0.03 0.03 0.04 0.03 0.02 0.02 0.03 0.03 0.05 0.06 0.08 0.12 0.13 0.15 0.10 0.08 0.06 0.05 0.05 0.07
0.00 0.00 0.00 0.00 0.00 0.00 0.00 0.02 0.03 0.02 0.05 0.19 0.22 0.19 0.28 0.35 0.38 0.42 0.46 0.69 0.81 0.71 0.50 0.28 0.18 0.12 0.07 0.05 0.04 0.04 0.04 0.05 0.07 0.07 0.06 0.07 0.06 0.07 0.11 0.13 0.13 0.15 0.17 0.16 0.12 0.08 0.06 0.07 0.09
0.00 0.00 0.00 0.00 0.00 0.00 0.01 0.03 0.06 0.03 0.03 0.07 0.10 0.16 0.27 0.24 0.32 0.38 0.46 0.61 0.84 0.64 0.45 0.36 0.30 0.20 0.11 0.07 0.05 0.04 0.04 0.06 0.09 0.14 0.15 0.17 0.15 0.14 0.22 0.20 0.18 0.19 0.19 0.15 0.18 0.17 0.16 0.12 0.11
0.00 0.00 0.00 0.00 0.00 0.00 0.01 0.02 0.02 0.02 0.03 0.05 0.04 0.10 0.12 0.17 0.25 0.33 0.46 0.57 0.57 0.43 0.37 0.31 0.34 0.36 0.22 0.11 0.10 0.07 0.07 0.09 0.14 0.15 0.15 0.22 0.19 0.13 0.15 0.21 0.24 0.26 0.24 0.16 0.15 0.25 0.28 0.21 0.14
0.00 0.00 0.00 0.00 0.00 0.00 0.00 0.02 0.03 0.02 0.03 0.03 0.04 0.08 0.08 0.10 0.20 0.28 0.32 0.42 0.43 0.38 0.34 0.30 0.33 0.30 0.30 0.16 0.16 0.11 0.09 0.09 0.11 0.14 0.18 0.19 0.17 0.13 0.14 0.16 0.20 0.21 0.16 0.16 0.19 0.24 0.28 0.27 0.22
0.00 0.00 0.00 0.00 0.00 0.00 0.00 0.02 0.09 0.04 0.01 0.02 0.03 0.05 0.08 0.08 0.12 0.13 0.17 0.24 0.35 0.30 0.21 0.19 0.26 0.32 0.27 0.20 0.21 0.18 0.13 0.11 0.14 0.19 0.22 0.15 0.12 0.12 0.11 0.13 0.13 0.15 0.14 0.14 0.19 0.25 0.33 0.29 0.25
0.00 0.00 0.00 0.00 0.00 0.00 0.00 0.01 0.06 0.04 0.02 0.03 0.04 0.06 0.13 0.13 0.17 0.15 0.17 0.16 0.24 0.21 0.19 0.14 0.15 0.24 0.20 0.17 0.16 0.18 0.12 0.10 0.11 0.15 0.17 0.16 0.12 0.12 0.11 0.10 0.09 0.09 0.11 0.14 0.16 0.16 0.21 0.26 0.23
0.00 0.00 0.00 0.00 0.00 0.00 0.00 0.01 0.02 0.03 0.03 0.07 0.09 0.08 0.09 0.16 0.24 0.19 0.23 0.16 0.15 0.20 0.26 0.18 0.11 0.10 0.11 0.11 0.09 0.08 0.09 0.12 0.11 0.08 0.08 0.08 0.06 0.08 0.09 0.08 0.08 0.07 0.08 0.12 0.14 0.16 0.20 0.18 0.16
0.00 0.00 0.00 0.00 0.00 0.00 0.01 0.02 0.04 0.04 0.04 0.05 0.08 0.09 0.10 0.08 0.14 0.13 0.12 0.08 0.06 0.07 0.09 0.08 0.06 0.06 0.06 0.05 0.05 0.06 0.08 0.09 0.10 0.07 0.07 0.07 0.06 0.06 0.06 0.07 0.07 0.07 0.08 0.10 0.11 0.13 0.13 0.12 0.12
0.00 0.00 0.00 0.00 0.00 0.01 0.02 0.04 0.06 0.06 0.05 0.05 0.05 0.07 0.06 0.04 0.05 0.05 0.04 0.03 0.03 0.03 0.04 0.04 0.04 0.04 0.05 0.05 0.06 0.07 0.07 0.10 0.07 0.05 0.05 0.05 0.05 0.05 0.05 0.05 0.06 0.07 0.06 0.07 0.09 0.10 0.11 0.13 0.16
0.00 0.00 0.00 0.01 0.01 0.01 0.02 0.05 0.08 0.09 0.09 0.06 0.06 0.09 0.08 0.05 0.03 0.03 0.02 0.02 0.02 0.02 0.02 0.02 0.02 0.03 0.03 0.04 0.04 0.06 0.06 0.07 0.06 0.04 0.05 0.06 0.06 0.05 0.05 0.04 0.05 0.05 0.05 0.07 0.08 0.09 0.10 0.12 0.16
0.00 0.00 0.00 0.01 0.02 0.02 0.02 0.04 0.09 0.10 0.08 0.07 0.09 0.11 0.08 0.04 0.02 0.01 0.01 0.01 0.01 0.01 0.01 0.01 0.02 0.02 0.02 0.03 0.03 0.04 0.05 0.04 0.05 0.04 0.04 0.03 0.04 0.04 0.03 0.03 0.04 0.05 0.06 0.05 0.06 0.08 0.10 0.10 0.10
0.00 0.00 0.00 0.01 0.02 0.02 0.01 0.02 0.08 0.08 0.07 0.07 0.10 0.11 0.05 0.03 0.01 0.01 0.00 0.00 0.00 0.00 0.01 0.01 0.01 0.01 0.01 0.01 0.02 0.02 0.03 0.04 0.04 0.04 0.04 0.04 0.04 0.03 0.03 0.03 0.04 0.06 0.07 0.08 0.08 0.10 0.12 0.10 0.09
0.00 0.00 0.01 0.01 0.03 0.02 0.02 0.02 0.05 0.05 0.04 0.05 0.08 0.09 0.05 0.02 0.01 0.00 0.00 0.00 0.00 0.00 0.00 0.00 0.01 0.01 0.01 0.01 0.01 0.02 0.03 0.05 0.05 0.04 0.05 0.05 0.04 0.04 0.03 0.03 0.03 0.05 0.07 0.09 0.11 0.13 0.12 0.10 0.10
0.00 0.00 0.01 0.03 0.04 0.03 0.03 0.06 0.13 0.11 0.07 0.08 0.07 0.06 0.05 0.04 0.02 0.01 0.00 0.00 0.00 0.00 0.00 0.00 0.01 0.01 0.01 0.01 0.01 0.02 0.02 0.03 0.03 0.05 0.04 0.04 0.04 0.03 0.03 0.02 0.03 0.04 0.05 0.07 0.09 0.12 0.13 0.11 0.10
0.00 0.00 0.01 0.01 0.02 0.04 0.07 0.13 0.24 0.23 0.18 0.15 0.12 0.10 0.08 0.06 0.03 0.02 0.01 0.01 0.00 0.00 0.00 0.00 0.01 0.01 0.01 0.01 0.01 0.01 0.01 0.02 0.03 0.03 0.03 0.03 0.03 0.03 0.02 0.01 0.02 0.02 0.03 0.04 0.07 0.09 0.09 0.08 0.08
0.00 0.00 0.01 0.02 0.04 0.08 0.09 0.10 0.14 0.22 0.18 0.18 0.11 0.09 0.07 0.06 0.03 0.02 0.02 0.01 0.01 0.00 0.00 0.00 0.00 0.00 0.01 0.01 0.01 0.01 0.01 0.02 0.02 0.02 0.02 0.03 0.03 0.03 0.02 0.02 0.01 0.02 0.02 0.03 0.04 0.07 0.07 0.06 0.05
0.01 0.01 0.01 0.02 0.04 0.07 0.09 0.10 0.10 0.16 0.22 0.20 0.13 0.09 0.09 0.07 0.06 0.03 0.02 0.01 0.01 0.00 0.00 0.00 0.00 0.00 0.00 0.01 0.01 0.01 0.02 0.03 0.03 0.02 0.01 0.01 0.02 0.02 0.02 0.02 0.02 0.02 0.02 0.03 0.04 0.04 0.04 0.04 0.05
0.01 0.02 0.02 0.03 0.03 0.03 0.05 0.07 0.07 0.09 0.13 0.17 0.17 0.12 0.09 0.06 0.04 0.02 0.01 0.01 0.01 0.00 0.00 0.00 0.00 0.00 0.00 0.00 0.01 0.01 0.02 0.03 0.03 0.02 0.01 0.01 0.01 0.01 0.01 0.01 0.02 0.03 0.03 0.03 0.04 0.03 0.04 0.03 0.03
MSLP
1010.46 1011.55 1012.83 1014.03 1014.92 1015.31 1015.11 1014.38 1013.26 1011.98 1010.79 1009.89 1009.41 1009.34 1009.61 1010.06 1010.53 1010.87 1011.02 1010.99 1010.86 1010.74 1010.75 1010.95 1011.36 1011.93 1012.55 1013.14 1013.60 1013.89 1014.02 1014.05 1014.06 1014.12 1014.27 1014.53 1014.86 1015.21 1015.53 1015.77 1015.92 1016.01 1016.07 1016.15 1016.28 1016.47 1016.71 1016.98 1017.22
1010.98 1012.26 1013.59 1014.73 1015.44 1015.56 1015.06 1014.04 1012.68 1011.23 1009.96 1009.05 1008.59 1008.57 1008.87 1009.34 1009.81 1010.14 1010.31 1010.32 1010.26 1010.26 1010.40 1010.74 1011.29 1011.96 1012.67 1013.30 1013.79 1014.10 1014.27 1014.34 1014.39 1014.49 1014.67 1014.94 1015.25 1015.55 1015.80 1015.97 1016.06 1016.11 1016.16 1016.26 1016.43 1016.67 1016.94 1017.22 1017.45
1011.70 1013.06 1014.35 1015.34 1015.79 1015.62 1014.83 1013.55 1012.02 1010.49 1009.22 1008.37 1007.99 1008.05 1008.41 1008.90 1009.35 1009.67 1009.81 1009.82 1009.80 1009.85 1010.08 1010.52 1011.14 1011.89 1012.64 1013.31 1013.82 1014.17 1014.38 1014.51 1014.63 1014.79 1015.02 1015.29 1015.58 1015.84 1016.02 1016.13 1016.17 1016.20 1016.26 1016.39 1016.60 1016.89 1017.20 1017.48 1017.70
1012.54 1013.88 1015.05 1015.80 1015.96 1015.49 1014.43 1012.97 1011.34 1009.83 1008.64 1007.92 1007.69 1007.86 1008.30 1008.81 1009.25 1009.52 1009.62 1009.60 1009.57 1009.65 1009.91 1010.38 1011.04 1011.80 1012.55 1013.22 1013.75 1014.13 1014.39 1014.59 1014.79 1015.02 1015.30 1015.59 1015.87 1016.09 1016.22 1016.28 1016.29 1016.31 1016.38 1016.55 1016.82 1017.14 1017.48 1017.77 1017.97
1013.39 1014.62 1015.58 1016.05 1015.91 1015.16 1013.90 1012.33 1010.71 1009.29 1008.28 1007.75 1007.70 1008.02 1008.54 1009.08 1009.50 1009.73 1009.78 1009.73 1009.68 1009.74 1009.99 1010.45 1011.09 1011.81 1012.53 1013.16 1013.67 1014.06 1014.35 1014.61 1014.89 1015.19 1015.53 1015.86 1016.14 1016.33 1016.43 1016.45 1016.43 1016.45 1016.55 1016.75 1017.06 1017.43 1017.79 1018.08 1018.26
1014.12 1015.17 1015.86 1016.04 1015.62 1014.64 1013.26 1011.67 1010.14 1008.91 1008.12 1007.84 1008.00 1008.47 1009.08 1009.66 1010.07 1010.27 1010.29 1010.20 1010.13 1010.18 1010.41 1010.83 1011.40 1012.04 1012.67 1013.22 1013.67 1014.03 1014.34 1014.64 1014.97 1015.34 1015.73 1016.10 1016.39 1016.57 1016.65 1016.64 1016.61 1016.63 1016.74 1016.98 1017.31 1017.70 1018.08 1018.37 1018.53
1014.60 1015.42 1015.83 1015.72 1015.06 1013.94 1012.51 1011.01 1009.65 1008.67 1008.15 1008.12 1008.50 1009.12 1009.82 1010.44 1010.85 1011.04 1011.05 1010.97 1010.90 1010.95 1011.15 1011.52 1012.01 1012.54 1013.04 1013.47 1013.83 1014.12 1014.40 1014.71 1015.08 1015.50 1015.93 1016.33 1016.63 1016.81 1016.87 1016.85 1016.80 1016.82 1016.94 1017.18 1017.53 1017.93 1018.31 1018.59 1018.75
1014.77 1015.34 1015.47 1015.12 1014.29 1013.10 1011.72 1010.36 1009.25 1008.54 1008.32 1008.54 1009.11 1009.86 1010.64 1011.29 1011.72 1011.92 1011.95 1011.90 1011.88 1011.94 1012.14 1012.46 1012.86 1013.26 1013.62 1013.91 1014.14 1014.34 1014.56 1014.85 1015.22 1015.66 1016.12 1016.53 1016.84 1017.02 1017.07 1017.03 1016.98 1016.98 1017.09 1017.33 1017.68 1018.08 1018.45 1018.74 1018.90
1014.64 1014.95 1014.85 1014.30 1013.37 1012.18 1010.92 1009.78 1008.94 1008.53 1008.57 1009.02 1009.75 1010.61 1011.43 1012.10 1012.55 1012.78 1012.86 1012.87 1012.91 1013.02 1013.23 1013.52 1013.84 1014.12 1014.34 1014.47 1014.55 1014.64 1014.78 1015.02 1015.37 1015.81 1016.27 1016.69 1017.01 1017.19 1017.23 1017.18 1017.11 1017.10 1017.19 1017.42 1017.75 1018.13 1018.50 1018.80 1018.97
1014.29 1014.38 1014.07 1013.39 1012.42 1011.30 1010.20 1009.31 1008.75 1008.62 1008.90 1009.53 1010.37 1011.28 1012.12 1012.79 1013.25 1013.51 1013.65 1013.74 1013.85 1014.03 1014.26 1014.53 1014.78 1014.96 1015.04 1015.03 1014.98 1014.94 1014.99 1015.17 1015.49 1015.90 1016.36 1016.78 1017.10 1017.27 1017.31 1017.26 1017.18 1017.15 1017.23 1017.43 1017.74 1018.11 1018.48 1018.78 1018.99
1013.85 1013.74 1013.28 1012.52 1011.56 1010.55 1009.65 1009.00 1008.70 1008.81 1009.29 1010.04 1010.95 1011.87 1012.68 1013.33 1013.78 1014.06 1014.25 1014.41 1014.59 1014.82 1015.09 1015.34 1015.54 1015.62 1015.59 1015.47 1015.30 1015.17 1015.13 1015.25 1015.52 1015.90 1016.34 1016.76 1017.07 1017.26 1017.31 1017.26 1017.18 1017.15 1017.21 1017.38 1017.67 1018.03 1018.40 1018.73 1018.97
1013.47 1013.20 1012.62 1011.82 1010.90 1010.02 1009.31 1008.89 1008.82 1009.13 1009.74 1010.57 1011.48 1012.37 1013.13 1013.72 1014.14 1014.42 1014.63 1014.83 1015.06 1015.33 1015.60 1015.84 1015.99 1016.01 1015.90 1015.69 1015.44 1015.23 1015.14 1015.20 1015.43 1015.79 1016.21 1016.61 1016.93 1017.13 1017.19 1017.17 1017.11 1017.08 1017.14 1017.31 1017.59 1017.94 1018.31 1018.66 1018.96
1013.24 1012.84 1012.18 1011.37 1010.52 1009.77 1009.24 1009.01 1009.12 1009.56 1010.26 1011.10 1011.98 1012.80 1013.48 1014.00 1014.36 1014.61 1014.82 1015.02 1015.26 1015.53 1015.79 1016.00 1016.11 1016.08 1015.92 1015.66 1015.37 1015.12 1014.99 1015.02 1015.22 1015.55 1015.95 1016.34 1016.67 1016.88 1016.98 1016.99 1016.97 1016.97 1017.04 1017.21 1017.49 1017.84 1018.23 1018.61 1018.95
1013.20 1012.71 1012.00 1011.19 1010.41 1009.78 1009.40 1009.33 1009.57 1010.09 1010.82 1011.64 1012.46 1013.19 1013.77 1014.20 1014.49 1014.70 1014.86 1015.04 1015.25 1015.48 1015.70 1015.87 1015.93 1015.86 1015.68 1015.41 1015.11 1014.86 1014.72 1014.74 1014.91 1015.21 1015.59 1015.97 1016.30 1016.54 1016.67 1016.73 1016.76 1016.80 1016.90 1017.10 1017.38 1017.74 1018.15 1018.57 1018.96
1013.30 1012.73 1012.00 1011.22 1010.52 1010.01 1009.75 1009.79 1010.11 1010.68 1011.39 1012.16 1012.90 1013.54 1014.03 1014.38 1014.60 1014.74 1014.85 1014.98 1015.13 1015.30 1015.45 1015.56 1015.58 1015.48 1015.29 1015.03 1014.75 1014.52 1014.39 1014.40 1014.56 1014.83 1015.17 1015.53 1015.86 1016.11 1016.29 1016.40 1016.48 1016.58 1016.72 1016.95 1017.26 1017.64 1018.07 1018.52 1018.97
1013.43 1012.82 1012.10 1011.38 1010.77 1010.37 1010.22 1010.34 1010.71 1011.27 1011.95 1012.65 1013.30 1013.84 1014.25 1014.53 1014.70 1014.79 1014.85 1014.92 1015.00 1015.09 1015.18 1015.22 1015.18 1015.07 1014.88 1014.64 1014.40 1014.20 1014.08 1014.09 1014.22 1014.45 1014.75 1015.07 1015.38 1015.64 1015.85 1016.01 1016.15 1016.30 1016.50 1016.75 1017.09 1017.49 1017.95 1018.44 1018.93
1013.48 1012.86 1012.19 1011.56 1011.08 1010.79 1010.75 1010.93 1011.32 1011.85 1012.46 1013.06 1013.62 1014.08 1014.43 1014.66 1014.79 1014.86 1014.90 1014.92 1014.94 1014.97 1014.98 1014.95 1014.87 1014.74 1014.55 1014.34 1014.13 1013.95 1013.85 1013.85 1013.94 1014.12 1014.36 1014.64 1014.91 1015.17 1015.39 1015.59 1015.78 1015.98 1016.22 1016.51 1016.88 1017.30 1017.78 1018.30 1018.84
1013.36 1012.79 1012.22 1011.74 1011.41 1011.27 1011.32 1011.56 1011.93 1012.40 1012.91 1013.41 1013.86 1014.24 1014.53 1014.74 1014.88 1014.95 1014.99 1015.00 1014.99 1014.96 1014.91 1014.83 1014.71 1014.55 1014.36 1014.17 1013.98 1013.83 1013.73 1013.70 1013.76 1013.88 1014.06 1014.27 1014.50 1014.73 1014.96 1015.18 1015.40 1015.64 1015.92 1016.24 1016.62 1017.06 1017.56 1018.10 1018.67
1013.06 1012.60 1012.20 1011.92 1011.78 1011.81 1011.97 1012.24 1012.58 1012.96 1013.34 1013.70 1014.03 1014.32 1014.56 1014.76 1014.92 1015.04 1015.11 1015.15 1015.14 1015.08 1014.99 1014.86 1014.70 1014.52 1014.32 1014.13 1013.95 1013.81 1013.71 1013.67 1013.68 1013.74 1013.86 1014.01 1014.19 1014.39 1014.60 1014.83 1015.08 1015.34 1015.64 1015.97 1016.35 1016.79 1017.28 1017.83 1018.41
1012.65 1012.36 1012.19 1012.16 1012.26 1012.47 1012.74 1013.03 1013.31 1013.56 1013.78 1013.97 1014.15 1014.33 1014.52 1014.72 1014.92 1015.10 1015.24 1015.33 1015.35 1015.30 1015.18 1015.02 1014.82 1014.60 1014.38 1014.18 1014.01 1013.87 1013.77 1013.71 1013.69 1013.71 1013.78 1013.88 1014.02 1014.19 1014.39 1014.61 1014.86 1015.12 1015.41 1015.73 1016.10 1016.50 1016.97 1017.50 1018.08
1012.24 1012.19 1012.31 1012.57 1012.92 1013.32 1013.69 1013.98 1014.17 1014.26 1014.27 1014.25 1014.25 1014.31 1014.43 1014.63 1014.87 1015.13 1015.35 1015.51 1015.58 1015.55 1015.43 1015.23 1014.99 1014.74 1014.49 1014.27 1014.09 1013.96 1013.86 1013.81 1013.79 1013.80 1013.84 1013.92 1014.04 1014.18 1014.36 1014.57 1014.79 1015.03 1015.29 1015.57 1015.88 1016.24 1016.65 1017.12 1017.66
1011.98 1012.21 1012.63 1013.20 1013.81 1014.38 1014.83 1015.09 1015.15 1015.05 1014.83 1014.58 1014.38 1014.29 1014.34 1014.52 1014.80 1015.13 1015.45 1015.69 1015.82 1015.82 1015.69 1015.47 1015.18 1014.88 1014.59 1014.35 1014.17 1014.04 1013.97 1013.95 1013.96 1013.99 1014.05 1014.14 1014.25 1014.38 1014.54 1014.71 1014.89 1015.08 1015.28 1015.49 1015.72 1015.98 1016.30 1016.69 1017.16
1011.97 1012.48 1013.21 1014.05 1014.89 1015.60 1016.09 1016.29 1016.21 1015.89 1015.43 1014.95 1014.54 1014.30 1014.26 1014.42 1014.74 1015.15 1015.55 1015.87 1016.05 1016.08 1015.95 1015.69 1015.36 1015.01 1014.68 1014.42 1014.24 1014.14 1014.11 1014.14 1014.21 1014.30 1014.40 1014.51 1014.63 1014.76 1014.89 1015.01 1015.13 1015.25 1015.35 1015.46 1015.58 1015.73 1015.93 1016.21 1016.57
1012.24 1013.01 1013.99 1015.06 1016.06 1016.86 1017.34 1017.45 1017.21 1016.69 1016.00 1015.30 1014.72 1014.34 1014.23 1014.38 1014.74 1015.20 1015.68 1016.07 1016.31 1016.35 1016.21 1015.93 1015.55 1015.15 1014.78 1014.50 1014.33 1014.27 1014.30 1014.40 1014.54 1014.71 1014.87 1015.02 1015.16 1015.27 1015.36 1015.42 1015.46 1015.47 1015.46 1015.44 1015.43 1015.45 1015.52 1015.67 1015.92
1012.74 1013.70 1014.86 1016.07 1017.15 1017.97 1018.40 1018.40 1018.01 1017.30 1016.44 1015.58 1014.86 1014.40 1014.26 1014.41 1014.81 1015.34 1015.88 1016.33 1016.60 1016.67 1016.52 1016.20 1015.78 1015.34 1014.95 1014.66 1014.51 1014.48 1014.58 1014.75 1014.98 1015.22 1015.44 1015.62 1015.76 1015.84 1015.87 1015.85 1015.78 1015.68 1015.54 1015.39 1015.25 1015.13 1015.08 1015.10 1015.22
1013.35 1014.42 1015.66 1016.90 1017.97 1018.73 1019.07 1018.96 1018.44 1017.61 1016.64 1015.69 1014.93 1014.45 1014.32 1014.51 1014.96 1015.55 1016.16 1016.66 1016.96 1017.04 1016.89 1016.55 1016.11 1015.65 1015.24 1014.95 1014.81 1014.82 1014.97 1015.21 1015.50 1015.79 1016.05 1016.24 1016.36 1016.39 1016.34 1016.22 1016.04 1015.81 1015.55 1015.28 1015.01 1014.78 1014.61 1014.53 1014.56
1013.96 1015.02 1016.22 1017.38 1018.36 1019.01 1019.23 1019.02 1018.42 1017.54 1016.55 1015.61 1014.88 1014.46 1014.39 1014.66 1015.18 1015.84 1016.50 1017.04 1017.38 1017.47 1017.33 1016.99 1016.54 1016.07 1015.66 1015.38 1015.26 1015.30 1015.48 1015.76 1016.08 1016.39 1016.64 1016.81 1016.88 1016.84 1016.70 1016.47 1016.18 1015.84 1015.47 1015.10 1014.75 1014.44 1014.20 1014.04 1014.00
1014.42 1015.38 1016.44 1017.44 1018.25 1018.74 1018.85 1018.56 1017.94 1017.08 1016.16 1015.33 1014.72 1014.42 1014.48 1014.85 1015.45 1016.18 1016.88 1017.46 1017.82 1017.93 1017.80 1017.48 1017.04 1016.59 1016.20 1015.94 1015.83 1015.89 1016.08 1016.36 1016.67 1016.95 1017.16 1017.27 1017.27 1017.14 1016.91 1016.58 1016.20 1015.77 1015.34 1014.91 1014.51 1014.17 1013.90 1013.73 1013.67
1014.68 1015.46 1016.30 1017.07 1017.67 1017.99 1017.99 1017.67 1017.08 1016.34 1015.57 1014.92 1014.50 1014.38 1014.58 1015.06 1015.75 1016.52 1017.25 1017.84 1018.22 1018.35 1018.25 1017.96 1017.56 1017.15 1016.79 1016.56 1016.46 1016.51 1016.69 1016.93 1017.19 1017.41 1017.55 1017.58 1017.49 1017.28 1016.97 1016.58 1016.13 1015.67 1015.21 1014.78 1014.40 1014.08 1013.84 1013.69 1013.65
1014.74 1015.30 1015.88 1016.40 1016.78 1016.95 1016.87 1016.55 1016.06 1015.48 1014.92 1014.50 1014.30 1014.37 1014.72 1015.30 1016.04 1016.83 1017.56 1018.15 1018.53 1018.67 1018.60 1018.36 1018.02 1017.66 1017.36 1017.15 1017.06 1017.10 1017.23 1017.42 1017.60 1017.74 1017.80 1017.75 1017.58 1017.30 1016.94 1016.52 1016.07 1015.62 1015.19 1014.81 1014.49 1014.23 1014.06 1013.98 1013.98
Thickness
5795 5798 5798 5788 5763 5743 5743 5765 5787 5799 5809 5825 5831 5824 5811 5802 5793 5786 5812 5818 5814 5808 5803 5799 5796 5793 5791 5789 5787 5785 5783 5781 5779 5777 5776 5774 5773 5772 5770 5768 5766 5764 5762 5760 5757 5756 5754 5752 5750
5792 5794 5786 5768 5743 5728 5740 5770 5785 5800 5816 5827 5827 5822 5812 5804 5812 5808 5810 5812 5812 5807 5801 5797 5794 5791 5788 5786 5783 5781 5779 5778 5775 5773 5772 5770 5769 5768 5767 5765 5763 5761 5760 5757 5755 5753 5752 5750 5749
5789 5789 5768 5750 5738 5732 5749 5780 5794 5811 5823 5826 5817 5816 5807 5801 5808 5807 5809 5809 5807 5803 5798 5794 5791 5788 5786 5783 5780 5778 5776 5774 5772 5770 5768 5767 5765 5764 5763 5762 5760 5759 5757 5755 5753 5751 5750 5749 5747
5781 5769 5757 5741 5739 5752 5766 5783 5797 5804 5814 5820 5813 5799 5801 5806 5809 5809 5808 5806 5801 5797 5794 5790 5787 5784 5782 5780 5777 5774 5772 5770 5768 5767 5765 5764 5762 5761 5760 5759 5757 5756 5755 5753 5751 5749 5748 5747 5745
5771 5752 5738 5730 5741 5763 5780 5791 5796 5799 5804 5808 5806 5788 5784 5799 5807 5806 5802 5799 5795 5790 5788 5785 5782 5779 5777 5775 5773 5771 5769 5767 5765 5764 5762 5761 5759 5758 5757 5756 5755 5753 5752 5750 5748 5747 5745 5744 5743
5750 5738 5722 5720 5739 5765 5782 5795 5800 5799 5800 5801 5796 5782 5776 5791 5795 5795 5794 5790 5788 5785 5781 5779 5777 5775 5773 5771 5770 5768 5766 5764 5763 5761 5759 5758 5756 5755 5754 5753 5751 5750 5749 5747 5746 5744 5743 5742 5741
5740 5729 5723 5732 5741 5757 5782 5797 5797 5795 5793 5794 5794 5774 5770 5779 5788 5791 5787 5782 5779 5777 5775 5773 5771 5770 5768 5767 5765 5764 5762 5761 5759 5758 5756 5755 5753 5752 5751 5749 5748 5747 5746 5744 5743 5741 5740 5739 5738
5748 5731 5729 5732 5741 5750 5779 5791 5797 5796 5790 5797 5793 5772 5763 5773 5783 5785 5779 5773 5771 5769 5769 5767 5766 5765 5764 5763 5761 5760 5758 5757 5756 5754 5753 5751 5750 5748 5747 5746 5745 5744 5743 5741 5740 5738 5737 5736 5735
5752 5722 5716 5731 5741 5752 5774 5779 5788 5796 5791 5786 5785 5781 5775 5776 5776 5773 5764 5761 5759 5758 5760 5761 5760 5759 5758 5758 5757 5755 5754 5752 5751 5750 5749 5747 5746 5744 5744 5743 5741 5740 5739 5738 5737 5736 5735 5734 5733
5736 5714 5727 5747 5755 5757 5766 5771 5778 5778 5773 5770 5771 5772 5772 5768 5762 5758 5754 5749 5748 5750 5751 5753 5754 5753 5753 5753 5751 5751 5749 5748 5747 5746 5744 5743 5742 5741 5740 5739 5738 5737 5736 5735 5734 5733 5732 5731 5730
5737 5729 5742 5754 5761 5764 5762 5766 5775 5769 5758 5762 5764 5762 5762 5757 5752 5748 5746 5744 5741 5741 5743 5745 5746 5747 5748 5748 5747 5746 5745 5743 5743 5742 5741 5739 5737 5736 5736 5736 5735 5734 5733 5732 5731 5730 5729 5728 5727
5737 5743 5750 5756 5764 5764 5762 5764 5761 5762 5759 5767 5767 5762 5755 5749 5744 5742 5740 5738 5736 5735 5735 5738 5740 5741 5742 5744 5743 5742 5741 5740 5740 5739 5738 5735 5733 5732 5732 5732 5732 5731 5730 5730 5729 5727 5726 5725 5724
5734 5741 5753 5758 5760 5761 5762 5758 5754 5751 5758 5762 5758 5754 5748 5744 5740 5738 5736 5735 5731 5730 5728 5731 5736 5737 5738 5739 5740 5739 5738 5737 5737 5736 5734 5732 5731 5729 5730 5730 5729 5728 5727 5726 5726 5724 5722 5720 5720
5737 5743 5749 5754 5758 5761 5755 5750 5748 5742 5751 5751 5748 5743 5741 5738 5736 5732 5730 5727 5724 5722 5723 5729 5730 5730 5732 5733 5734 5735 5734 5734 5733 5733 5732 5731 5729 5728 5726 5726 5726 5725 5724 5723 5722 5720 5717 5716 5716
5741 5736 5739 5748 5754 5755 5752 5736 5737 5741 5743 5739 5736 5735 5733 5732 5731 5728 5726 5725 5724 5723 5723 5726 5729 5727 5727 5728 5728 5729 5731 5731 5730 5729 5729 5728 5727 5726 5724 5723 5722 5721 5721 5720 5718 5716 5713 5712 5712
5730 5723 5718 5737 5750 5752 5741 5716 5730 5738 5736 5729 5728 5727 5724 5723 5723 5723 5724 5723 5722 5721 5719 5721 5724 5723 5723 5723 5724 5724 5725 5726 5725 5725 5725 5725 5723 5721 5720 5719 5718 5716 5716 5715 5713 5712 5710 5708 5708
5706 5703 5710 5726 5746 5747 5734 5718 5728 5735 5732 5725 5721 5719 5718 5716 5715 5716 5718 5717 5716 5715 5713 5712 5716 5717 5718 5719 5719 5718 5718 5720 5720 5720 5720 5720 5719 5717 5715 5714 5713 5712 5711 5711 5710 5708 5706 5703 5702
5692 5699 5708 5715 5735 5738 5726 5720 5724 5730 5729 5722 5718 5715 5714 5710 5709 5710 5711 5711 5710 5707 5706 5707 5710 5712 5713 5713 5713 5711 5713 5713 5714 5713 5713 5713 5713 5711 5710 5709 5708 5707 5706 5706 5705 5703 5701 5700 5698
5703 5702 5701 5717 5737 5730 5722 5718 5719 5722 5721 5717 5712 5711 5709 5707 5704 5704 5706 5706 5705 5702 5700 5698 5703 5705 5706 5706 5704 5704 5704 5704 5704 5705 5705 5705 5705 5705 5705 5704 5703 5703 5702 5701 5701 5698 5696 5694 5694
5705 5699 5703 5717 5735 5729 5717 5711 5715 5718 5716 5715 5711 5708 5705 5702 5700 5698 5699 5699 5697 5696 5695 5695 5697 5698 5700 5700 5700 5701 5700 5698 5698 5698 5698 5698 5698 5699 5699 5699 5698 5698 5697 5695 5694 5694 5691 5690 5690
5705 5702 5706 5711 5723 5725 5715 5697 5699 5706 5709 5708 5707 5706 5703 5700 5697 5694 5692 5690 5689 5688 5688 5689 5690 5692 5693 5695 5695 5693 5691 5691 5689 5689 5690 5692 5693 5693 5693 5693 5693 5693 5692 5690 5689 5689 5688 5685 5685
5697 5716 5718 5716 5703 5692 5702 5674 5684 5692 5694 5696 5696 5697 5696 5694 5691 5689 5687 5684 5683 5682 5682 5682 5683 5683 5684 5686 5685 5683 5681 5679 5680 5681 5682 5684 5685 5686 5686 5686 5687 5687 5686 5685 5685 5685 5684 5682 5679
5711 5721 5717 5712 5699 5687 5688 5674 5673 5685 5682 5686 5689 5690 5688 5687 5685 5683 5681 5679 5678 5676 5675 5674 5674 5674 5675 5676 5676 5675 5674 5673 5674 5675 5675 5675 5676 5677 5678 5678 5679 5679 5680 5680 5680 5680 5678 5677 5676
5722 5713 5705 5693 5681 5665 5675 5670 5666 5675 5682 5685 5686 5685 5683 5681 5678 5675 5674 5672 5670 5668 5667 5666 5666 5665 5666 5667 5667 5666 5666 5666 5666 5666 5666 5666 5667 5668 5669 5669 5670 5671 5671 5672 5673 5673 5672 5672 5671
5711 5684 5663 5660 5651 5655 5673 5670 5666 5681 5688 5689 5685 5681 5678 5676 5672 5667 5664 5662 5660 5659 5658 5657 5656 5656 5657 5657 5657 5657 5657 5657 5656 5656 5657 5657 5657 5658 5659 5660 5660 5661 5662 5663 5664 5665 5665 5666 5666
5701 5685 5658 5648 5646 5650 5664 5660 5668 5682 5689 5689 5684 5678 5673 5668 5664 5660 5657 5654 5652 5650 5649 5648 5647 5646 5647 5647 5646 5647 5647 5646 5646 5647 5647 5647 5648 5648 5649 5650 5651 5652 5654 5655 5656 5657 5658 5658 5659
5697 5684 5681 5660 5654 5645 5651 5660 5671 5678 5679 5677 5673 5669 5666 5661 5657 5653 5650 5646 5643 5642 5640 5639 5638 5637 5637 5637 5637 5637 5637 5637 5637 5637 5637 5638 5638 5639 5641 5642 5643 5644 5645 5647 5648 5649 5649 5649 5650
5703 5692 5670 5657 5642 5638 5646 5652 5655 5665 5666 5667 5665 5660 5657 5653 5649 5645 5642 5638 5635 5632 5630 5629 5628 5627 5627 5626 5626 5627 5627 5627 5627 5627 5627 5628 5629 5630 5632 5633 5634 5635 5636 5637 5639 5639 5640 5640 5641
5690 5686 5673 5657 5653 5639 5633 5646 5671 5668 5667 5664 5661 5656 5653 5647 5642 5637 5632 5629 5625 5622 5620 5619 5618 5617 5616 5616 5616 5616 5616 5616 5617 5617 5617 5618 5619 5620 5622 5623 5624 5626 5627 5628 5629 5630 5631 5632 5633
5692 5684 5673 5656 5651 5649 5639 5647 5674 5670 5667 5662 5657 5650 5645 5639 5633 5627 5623 5618 5614 5611 5609 5608 5607 5605 5604 5604 5604 5603 5603 5604 5604 5605 5606 5607 5608 5610 5611 5613 5614 5616 5617 5618 5619 5620 5621 5622 5624